Date String (YYYY-MM-DD hh:mm:ss) UTC,Instrument flags,Ambient pressure (hPa),Sample flow (lpm),Bypass flow (lpm),Sample temperature (°C),Ambient temperature (°C),ASC tube jacket temperature (°C),LED temperature (°C),Box temperature (°C),Sample RH (%),Span deviation,Mass concentration (μg/m³),Mass concentration (μg/m³),Mass concentration (μg/m³)
DateTimeUTC,F1_M11,P_M11,Q1_M11,Q2_M11,T1_M11,T2_M11,T3_M11,T4_M11,T5_M11,U1_M11,ZSPAN_M11,X2_M11,X0_M11,X1_M11
2023-04-12 16:00:00,,0825.4,4.99,0.00,29.2,27.9,00.0,37.5,30.9,11.7,-001.0,0005.98,0017.26,0004.46
2023-04-12 16:01:00,,0825.4,4.99,0.00,29.3,27.9,00.0,37.5,30.9,11.7,-001.7,0005.97,0017.87,0004.43
2023-04-12 16:02:00,,0825.4,5.00,0.00,29.3,27.9,00.0,37.5,30.9,11.6,-002.8,0005.95,0017.16,0004.38
2023-04-12 16:03:00,,0825.4,5.00,0.00,29.3,27.9,00.0,37.5,30.9,11.8,-002.4,0005.97,0017.34,0004.37
2023-04-12 16:04:00,,0825.5,4.99,0.00,29.3,28.0,00.0,37.6,31.0,11.5,-002.3,0005.98,0017.55,0004.38
2023-04-12 16:05:00,,0825.5,5.01,0.00,29.3,28.0,00.0,37.6,31.0,11.7,-002.1,0005.93,0017.23,0004.37
2023-04-12 16:06:00,,0825.5,5.00,0.00,29.3,28.0,00.0,37.6,31.0,12.0,-001.8,0005.90,0016.61,0004.37
2023-04-12 16:07:00,,0825.5,5.00,0.00,29.3,28.0,00.0,37.6,31.0,11.7,-001.9,0005.98,0017.12,0004.40
2023-04-12 16:08:00,,0825.4,5.00,0.00,29.4,28.0,00.0,37.6,31.0,11.7,-001.9,0005.96,0017.02,0004.41
2023-04-12 16:09:00,,0825.4,5.01,0.00,29.4,28.0,00.0,37.6,31.1,11.8,-001.8,0006.04,0017.24,0004.42
2023-04-12 16:10:00,,0825.3,5.00,0.00,29.4,28.1,00.0,37.6,31.0,11.8,-001.6,0006.14,0017.04,0004.45
2023-04-12 16:11:00,,0825.4,5.00,0.00,29.4,28.1,00.0,37.7,31.1,12.1,-001.9,0006.24,0017.74,0004.50
2023-04-12 16:12:00,,0825.4,5.00,0.00,29.4,28.1,00.0,37.7,31.1,11.9,0000.5,0006.41,0018.38,0004.56
2023-04-12 16:13:00,,0825.4,5.00,0.00,29.4,28.1,00.0,37.7,31.1,11.9,0002.2,0006.45,0018.64,0004.60
2023-04-12 16:14:00,,0825.3,5.01,0.00,29.4,28.1,00.0,37.7,31.1,11.8,0003.3,0006.46,0018.93,0004.67
2023-04-12 16:15:00,,0825.4,5.00,0.00,29.5,28.1,00.0,37.7,31.1,11.6,0004.1,0006.42,0020.24,0004.69
2023-04-12 16:16:00,,0825.3,5.01,0.00,29.5,28.1,00.0,37.7,31.2,11.8,0004.6,0006.47,0020.11,0004.73
2023-04-12 16:17:00,,0825.3,5.00,0.00,29.5,28.2,00.0,37.7,31.2,11.4,0004.8,0006.51,0020.52,0004.72
2023-04-12 16:18:00,,0825.3,5.00,0.00,29.5,28.2,00.0,37.7,31.2,11.2,0005.0,0006.45,0020.47,0004.66
2023-04-12 16:19:00,,0825.3,5.00,0.00,29.5,28.2,00.0,37.8,31.2,11.1,0005.1,0006.43,0020.64,0004.61
2023-04-12 16:20:00,,0825.2,5.00,0.00,29.5,28.2,00.0,37.8,31.1,11.1,0005.2,0006.33,0020.26,0004.56
2023-04-12 16:21:00,,0825.2,5.01,0.00,29.5,28.2,00.0,37.8,31.1,11.2,0005.3,0006.19,0019.78,0004.50
2023-04-12 16:22:00,,0825.2,4.99,0.00,29.5,28.2,00.0,37.8,31.2,11.0,0004.9,0006.02,0018.84,0004.40
2023-04-12 16:23:00,,0825.2,5.00,0.00,29.6,28.2,00.0,37.8,31.2,11.1,0004.5,0005.82,0018.51,0004.27
2023-04-12 16:24:00,,0825.2,5.00,0.00,29.6,28.3,00.0,37.8,31.2,11.2,0004.0,0005.61,0018.17,0004.17
2023-04-12 16:25:00,,0825.2,5.00,0.00,29.6,28.3,00.0,37.8,31.2,10.9,0003.1,0005.49,0019.25,0004.03
2023-04-12 16:26:00,,0825.2,4.99,0.00,29.6,28.3,00.0,37.8,31.3,11.2,0000.2,0005.43,0018.37,0003.95
2023-04-12 16:27:00,,0825.2,5.00,0.00,29.6,28.3,00.0,37.9,31.3,10.9,-000.7,0005.35,0017.19,0003.87
2023-04-12 16:28:00,,0825.2,5.00,0.00,29.6,28.3,00.0,37.9,31.3,10.8,-000.6,0005.23,0016.87,0003.79
2023-04-12 16:29:00,,0825.2,5.00,0.00,29.6,28.3,00.0,37.9,31.3,10.7,-000.1,0005.16,0016.62,0003.74
2023-04-12 16:30:00,,0825.2,5.00,0.00,29.7,28.4,00.0,37.9,31.3,10.7,-001.1,0005.09,0017.09,0003.70
2023-04-12 16:31:00,,0825.2,5.00,0.00,29.7,28.4,00.0,37.9,31.4,10.6,-002.1,0005.06,0017.69,0003.67
2023-04-12 16:32:00,,0825.3,5.00,0.00,29.7,28.4,00.0,37.9,31.4,10.5,-000.8,0005.03,0019.46,0003.62
2023-04-12 16:33:00,,0825.3,5.00,0.00,29.7,28.4,00.0,38.0,31.4,10.6,-001.1,0005.02,0019.95,0003.58
2023-04-12 16:34:00,,0825.2,5.00,0.00,29.7,28.4,00.0,38.0,31.4,10.8,-001.3,0004.98,0019.39,0003.57
2023-04-12 16:35:00,,0825.2,5.00,0.00,29.7,28.5,00.0,38.0,31.4,10.9,-001.0,0004.99,0019.07,0003.56
2023-04-12 16:36:00,,0825.2,5.00,0.00,29.8,28.5,00.0,38.0,31.4,11.0,-001.3,0005.04,0018.45,0003.57
2023-04-12 16:37:00,,0825.2,5.00,0.00,29.8,28.5,00.0,38.0,31.4,10.8,-000.6,0005.01,0018.24,0003.54
2023-04-12 16:38:00,,0825.2,5.00,0.00,29.8,28.5,00.0,38.0,31.4,10.6,0000.0,0004.99,0018.29,0003.50
2023-04-12 16:39:00,,0825.2,5.00,0.00,29.8,28.5,00.0,38.0,31.4,10.6,0000.0,0004.96,0018.73,0003.49
2023-04-12 16:40:00,,0825.2,5.00,0.00,29.8,28.5,00.0,38.1,31.5,10.7,0000.0,0004.92,0019.55,0003.48
2023-04-12 16:41:00,,0825.2,5.00,0.00,29.8,28.5,00.0,38.1,31.5,10.8,0000.0,0004.86,0019.00,0003.46
2023-04-12 16:42:00,,0825.2,5.00,0.00,29.8,28.6,00.0,38.1,31.5,10.8,0000.0,0004.80,0019.18,0003.45
2023-04-12 16:43:00,,0825.2,4.99,0.00,29.9,28.6,00.0,38.1,31.5,11.1,0000.0,0004.80,0017.50,0003.45
2023-04-12 16:44:00,,0825.2,5.00,0.00,29.9,28.6,00.0,38.1,31.5,11.0,0000.0,0004.77,0016.92,0003.48
2023-04-12 16:45:00,,0825.2,5.00,0.00,29.9,28.6,00.0,38.1,31.5,10.9,0000.0,0004.78,0016.64,0003.48
2023-04-12 16:46:00,,0825.2,5.00,0.00,29.9,28.6,00.0,38.2,31.6,10.7,0000.0,0004.81,0016.16,0003.48
2023-04-12 16:47:00,,0825.2,5.00,0.00,29.9,28.7,00.0,38.2,31.6,10.9,0000.0,0004.78,0016.02,0003.47
2023-04-12 16:48:00,,0825.2,5.00,0.00,29.9,28.7,00.0,38.2,31.6,10.9,0000.0,0004.81,0015.50,0003.49
2023-04-12 16:49:00,,0825.2,5.01,0.00,30.0,28.7,00.0,38.2,31.6,11.1,0000.0,0004.89,0015.85,0003.53
2023-04-12 16:50:00,,0825.2,5.00,0.00,30.0,28.7,00.0,38.2,31.6,11.0,0000.0,0004.86,0015.40,0003.54
2023-04-12 16:51:00,,0825.2,5.00,0.00,30.0,28.7,00.0,38.2,31.6,10.9,0000.0,0004.85,0015.22,0003.55
2023-04-12 16:52:00,,0825.1,5.00,0.00,30.0,28.7,00.0,38.2,31.7,10.7,0000.0,0004.96,0015.86,0003.56
2023-04-12 16:53:00,,0825.1,5.00,0.00,30.0,28.7,00.0,38.3,31.7,10.6,0000.0,0004.97,0015.52,0003.55
2023-04-12 16:54:00,,0825.1,5.00,0.00,30.0,28.8,00.0,38.3,31.7,11.6,0000.0,0004.96,0015.52,0003.56
2023-04-12 16:55:00,,0825.1,4.99,0.00,30.1,28.8,00.0,38.3,31.7,11.5,0000.0,0004.97,0015.49,0003.55
2023-04-12 16:56:00,,0825.1,5.00,0.00,30.1,28.8,00.0,38.3,31.7,11.1,0000.0,0004.98,0015.81,0003.53
2023-04-12 16:57:00,,0825.1,5.00,0.00,30.1,28.8,00.0,38.3,31.7,10.7,0000.0,0004.96,0016.85,0003.51
2023-04-12 16:58:00,,0825.1,4.99,0.00,30.1,28.8,00.0,38.3,31.7,10.7,0000.0,0004.95,0016.13,0003.50
2023-04-12 16:59:00,,0825.1,5.00,0.00,30.1,28.9,00.0,38.4,31.7,10.4,0000.0,0004.94,0015.88,0003.47
